Regional Weather Roundup
Issued by NWS

Home | Current Version | Previous Version | Text Only | Print | Product List | Glossary On
Versions: 1 2 3 4 5 6 7 8 9 10 11 12 13 14 15 16 17 18 19 20 21 22 23 24 25 26 27 28 29 30 31 32 33 34 35 36 37 38 39 40 41 42 43 44 45 46 47 48 49 50
000
ASUS46 KPQR 311310
RWROR

OREGON REGIONAL WEATHER ROUNDUP
NATIONAL WEATHER SERVICE PORTLAND OR
500 AM PST SAT JAN 31 2015

NOTE: "FAIR" INDICATES FEW OR NO CLOUDS BELOW 12,000 FEET WITH
NO SIGNIFICANT WEATHER AND/OR OBSTRUCTIONS TO VISIBILITY.

ORZ001>013-311400-
NORTHWEST OREGON


CITY           SKY/WX    TMP DP  RH WIND       PRES   REMARKS
ASTORIA        CLOUDY    38  37  97 E6        30.17F FOG     WCI  33
NEWPORT        CLEAR     43  39  87 E3        30.19R
PORTLAND       FOG       32  32 100 W3        30.24S VSB 1/4
VANCOUVER WA   FOG       32  31  96 W3        30.23F VSB 1/4
SCAPPOOSE      FOG       32  31  96 CALM      30.23S VSB 1/4
HILLSBORO      FOG       30  30 100 CALM      30.22S VSB 1/4
AURORA         CLEAR     32  31  96 NE3       30.22S
MCMINNVILLE    FOG       31  30  96 CALM      30.21F VSB<1/4
SALEM          CLEAR     31  30  96 S3        30.20F
CORVALLIS      CLOUDY    37  34  87 CALM      30.22S VSB 1/4
EUGENE         FOG       38  37  97 CALM      30.20F VSB 1/4
$$

ORZ021-028-311400-
SOUTHWEST OREGON


CITY           SKY/WX    TMP DP  RH WIND       PRES   REMARKS
NORTH BEND     CLEAR     41  41 100 CALM      30.14R
BROOKINGS      CLEAR     52  41  66 CALM      30.04F
ROSEBURG       CLOUDY    46  40  79 S3        30.18F
SEXTON SUMMIT  CLEAR     45  23  42 E8        30.13S
MEDFORD        FOG       32  31  96 CALM      30.18S VSB 1/4
$$

ORZ014>016-041-311400-
COLUMBIA GORGE


CITY           SKY/WX    TMP DP  RH WIND       PRES   REMARKS
TROUTDALE      CLEAR     34  31  88 CALM      30.22S
THE DALLES     CLOUDY    39  33  79 NW5       30.27R
$$

ORZ029>031-041-044-049-050-061>064-502-503-505>511-311400-
EASTERN OREGON


CITY           SKY/WX    TMP DP  RH WIND       PRES   REMARKS
REDMOND        CLOUDY    29  29 100 E6        30.19S FOG     WCI  23
BEND           CLEAR     25  25 100 CALM      30.20R
PRINEVILLE     CLEAR     28  28 100 SE5       30.20S WCI  23
KLAMATH FALLS  PTCLDY    20  15  81 S5        30.17F WCI  13
LAKEVIEW       CLEAR     32  21  64 N14G20    30.17S WCI  22
HERMISTON      CLOUDY    38  34  85 E7        30.28S WCI  33
PENDLETON      CLOUDY    34  31  88 SE3       30.26R
JOHN DAY       CLOUDY    30  29  94 E6        30.21S WCI  24
MEACHAM        CLEAR     19  15  84 CALM      30.17R
LA GRANDE      CLEAR     25  18  74 MISG      30.19R
BAKER CITY     CLEAR     19  17  92 CALM      30.16S
BURNS          FOG       26  24  92 CALM      30.17F VSB 1/2
ROME             N/A     20  16  84 S5        30.15R WCI  13
ONTARIO        FOG       24  23  96 CALM      30.18S VSB 1/4
$$



USA.gov is the U.S. government's official web portal to all federal, state and local government web resources and services.